RH
63 62 61 57 53 48 61 75 90 62 58 48 39 36 37 34 34 34 39 41 48 51 56 57 59 59 57 56 57 56 56 61 69 72 74 71 75 70 68 66 65 64 66 68
72 48 46 53 44 42 42 41 44 48 50 34 34 31 29 28 30 38 40 40 40 44 49 56 57 60 59 58 59 57 59 62 64 73 73 78 79 72 70 69 68 71 74 69
74 43 45 61 46 38 34 32 36 45 37 28 30 28 30 29 30 34 37 40 39 38 45 52 55 56 59 60 61 60 60 61 70 75 78 83 77 70 75 79 88 87 73 70
81 56 79 34 23 25 31 30 30 33 32 29 28 28 28 29 39 43 39 38 40 40 40 46 51 54 56 59 63 64 64 70 71 76 89 94 91 91 92 96 91 79 72 68
84 59 40 34 35 40 43 38 39 38 34 30 34 49 47 39 40 43 47 47 46 45 44 44 50 55 57 61 63 66 73 76 79 91 98 99 99 97 97 95 83 75 70 66
78 84 72 33 21 20 39 62 38 34 37 58 61 66 51 40 44 48 48 51 55 54 52 50 52 56 64 69 72 79 86 90 98 99 99 100 99 97 94 87 80 73 65 63
84 83 56 34 27 38 64 49 31 48 50 55 62 55 44 44 50 51 53 58 58 58 59 57 57 61 67 71 86 96 100 100 100 100 100 99 97 95 92 89 71 64 61 59
66 89 80 31 39 48 40 46 56 54 53 61 62 58 54 52 56 53 58 62 65 66 67 60 59 66 77 92 99 99 99 100 100 100 98 96 94 93 89 75 62 62 63 57
52 47 43 40 41 39 41 58 52 54 55 52 60 60 60 61 58 55 62 64 68 69 72 63 63 68 78 95 96 98 98 98 97 95 93 92 89 87 73 60 65 71 71 71
60 44 37 36 30 38 39 46 45 51 52 56 56 54 67 62 56 59 62 67 65 71 72 77 73 76 93 97 98 98 97 97 96 97 94 90 82 73 83 85 80 79 82 83
58 48 46 46 46 47 46 48 51 50 56 56 52 60 62 70 61 58 70 70 72 78 84 90 86 94 94 97 96 95 96 97 97 96 94 87 82 82 81 83 79 82 80 78
77 54 57 50 51 49 54 47 43 48 51 45 56 68 70 69 60 62 71 70 75 80 86 92 89 94 96 90 82 86 91 93 93 92 89 88 84 87 74 80 71 68 71 75
56 48 53 55 52 47 53 53 49 51 50 50 62 70 68 65 60 67 66 71 77 85 90 89 90 92 93 92 89 92 92 88 82 85 86 88 87 85 87 78 64 64 66 66
44 49 55 47 55 49 52 50 51 49 49 55 63 74 67 65 86 92 89 92 93 91 94 94 93 96 96 95 95 93 85 83 83 86 88 88 88 87 87 87 89 92 86 84
46 44 49 44 45 44 44 47 50 51 53 68 68 72 73 82 92 92 95 96 95 95 96 96 95 96 96 92 88 87 86 87 89 90 89 89 90 89 87 87 86 87 86 84
56 50 48 53 50 50 52 54 59 56 66 70 74 75 70 77 86 94 95 95 95 95 97 97 96 94 88 89 89 88 87 88 85 85 90 90 89 90 91 89 87 85 84 79
81 76 75 71 61 61 64 82 89 65 72 72 71 72 73 78 91 97 96 97 97 97 97 96 94 91 89 88 84 79 83 82 85 81 83 85 87 87 85 86 85 86 85 88
67 69 71 78 86 87 87 85 76 80 76 71 84 91 94 91 93 96 96 96 95 94 92 91 90 88 88 86 75 72 75 77 78 83 83 87 84 82 84 83 82 82 84 85
92 96 95 96 90 89 85 80 83 77 86 92 93 93 92 94 96 96 92 90 90 89 92 90 85 79 77 80 71 74 79 82 81 80 81 89 86 81 87 86 84 85 81 84
96 96 97 96 96 98 92 86 87 94 94 91 96 97 96 96 95 92 86 82 76 71 83 83 77 75 76 81 79 70 80 84 79 84 88 83 88 92 90 88 82 85 90 88
96 93 97 97 95 96 96 95 96 97 98 95 94 95 95 95 90 88 86 70 81 83 76 82 66 67 66 73 67 80 85 87 87 87 88 90 91 87 89 88 88 87 89 92
96 97 98 97 98 99 99 96 95 97 97 97 96 95 94 93 91 90 92 71 74 88 76 72 68 77 71 86 72 87 81 82 84 86 86 88 89 90 89 90 90 90 92 92
97 97 98 98 98 99 98 97 97 96 96 94 93 92 87 81 74 76 76 76 75 86 75 77 85 92 94 87 90 90 88 88 91 92 91 89 88 88 87 88 91 92 92 92
94 96 97 96 97 98 97 96 95 92 92 91 91 88 82 87 87 75 74 84 87 91 86 89 90 91 91 91 91 90 90 88 88 90 86 92 89 90 90 92 92 92 92 94
96 94 93 94 93 89 92 91 91 92 91 89 89 85 79 71 83 85 88 86 91 85 87 94 92 93 88 90 90 91 90 88 88 90 89 89 90 93 93 92 92 92 93 92
96 92 87 87 83 83 82 81 84 86 86 92 92 92 92 86 86 87 89 89 86 86 87 93 92 91 91 90 91 92 88 79 88 87 90 91 92 91 92 92 93 92 92 91
93 95 90 88 84 84 85 84 89 91 88 91 91 94 89 92 91 89 92 91 91 92 94 94 93 90 89 91 90 89 88 88 93 91 94 94 92 92 93 93 93 92 91 92
Wind_Speed
12 11 8 13 18 18 13 14 12 23 20 29 23 22 21 20 18 20 18 15 10 11 12 13 13 15 15 15 15 16 18 17 16 15 13 13 12 13 13 14 13 13 12 11
6 9 10 12 17 19 19 19 19 22 23 26 26 22 20 18 18 19 19 17 16 13 13 14 17 15 17 18 17 16 16 16 17 17 17 15 13 12 12 12 12 11 11 11
11 8 9 11 20 20 19 19 15 16 19 22 26 25 19 19 20 19 19 18 18 17 13 15 18 17 19 17 18 18 16 16 16 15 16 15 15 14 13 11 10 11 11 10
11 12 12 11 14 17 19 18 16 18 19 23 25 23 20 18 16 17 16 14 15 14 13 13 15 17 15 14 16 17 18 17 18 18 17 16 16 13 11 9 11 11 11 11
7 12 15 17 15 7 7 15 11 18 20 23 21 13 22 7 8 12 12 14 15 15 14 11 14 16 16 17 16 16 17 19 18 18 19 17 16 14 11 11 10 10 11 11
7 11 13 14 17 12 9 16 20 21 19 11 6 8 13 9 11 15 12 10 11 14 11 8 10 15 16 17 17 16 15 15 17 17 17 15 14 13 10 11 11 10 11 10
12 11 9 17 19 1 9 12 11 6 11 15 15 12 18 19 13 9 9 9 7 8 7 4 9 13 15 15 13 11 13 15 16 16 16 15 14 11 10 11 11 11 11 10
8 7 14 14 13 10 10 6 10 14 17 17 18 18 17 15 13 10 9 6 5 8 8 5 7 11 12 11 11 14 15 16 15 14 11 12 15 11 12 12 12 11 11 9
11 11 7 12 15 17 17 19 19 15 20 17 17 17 14 11 9 8 3 2 4 8 9 6 7 10 13 12 13 14 14 13 13 14 14 13 14 13 11 11 10 10 9 8
14 20 26 24 23 21 21 22 19 16 16 13 15 16 13 13 8 5 3 4 5 9 9 9 9 11 12 12 13 14 14 13 13 13 13 12 9 9 9 9 9 8 8 7
21 24 20 23 22 21 25 17 16 14 12 12 14 14 13 10 7 5 6 7 7 8 9 10 11 11 11 11 13 13 13 12 12 10 11 11 8 8 9 7 8 9 8 8
17 22 16 18 16 15 16 19 14 13 14 13 11 11 13 6 4 7 9 9 8 9 9 9 11 11 11 12 13 14 14 10 9 10 9 8 9 8 9 10 10 9 13 10
25 25 22 21 22 23 19 18 17 16 13 15 14 10 5 4 6 7 8 9 9 11 10 10 11 11 11 11 12 12 13 12 10 10 9 10 9 10 10 8 11 11 14 13
16 17 19 19 14 14 13 14 14 12 15 13 13 7 7 7 7 10 5 6 9 11 11 10 11 12 11 10 11 11 11 11 9 9 9 9 9 8 8 9 9 7 3 7
17 16 21 20 17 15 15 14 15 13 12 10 5 6 8 9 9 7 8 8 9 10 10 10 11 11 10 9 11 12 10 8 8 8 7 8 7 7 7 7 6 6 4 2
18 17 18 17 17 16 14 12 13 15 10 7 6 7 7 8 10 10 9 9 11 10 8 9 9 8 9 9 11 9 8 11 9 8 8 7 7 7 6 6 6 5 5 5
17 16 14 12 13 14 14 9 11 15 8 8 8 10 11 12 11 9 8 6 8 8 7 8 10 7 8 9 10 8 7 8 9 8 8 7 7 7 6 6 5 5 4 4
15 17 19 19 11 10 9 9 11 9 9 10 10 10 10 11 11 10 8 8 9 8 6 8 10 9 8 9 9 8 8 8 8 8 7 7 6 6 6 6 5 4 4 4
17 17 17 16 14 12 13 10 8 9 9 11 11 10 9 9 11 10 10 9 9 10 6 8 11 11 10 9 9 7 8 9 8 7 6 6 6 6 6 5 5 4 3 4
17 14 16 15 12 10 7 5 10 9 9 11 11 10 10 9 10 10 7 8 6 4 12 11 10 10 10 10 9 7 8 8 8 7 6 6 6 6 5 5 4 4 5 4
15 14 11 4 4 4 6 9 10 10 10 10 11 10 10 9 9 9 10 8 5 10 11 12 9 8 7 8 7 7 7 7 7 7 7 6 5 5 5 5 4 4 4 4
13 11 8 5 4 7 7 8 9 10 9 7 8 10 11 10 9 5 2 4 8 11 10 8 7 9 8 9 7 7 7 7 6 5 5 5 5 5 5 5 5 4 3 3
9 9 6 5 4 4 6 7 7 9 10 9 10 11 9 9 9 9 7 7 8 9 8 8 9 10 11 7 7 7 6 6 5 6 6 5 4 4 5 5 3 3 3 3
9 7 5 3 4 4 6 3 5 6 6 6 6 8 12 9 5 2 5 10 11 12 8 9 10 11 10 6 6 6 5 5 4 4 5 4 4 4 3 3 3 3 2 1
6 6 4 2 2 3 6 7 8 7 7 7 7 6 6 5 3 6 7 8 12 10 8 9 11 11 7 7 7 6 5 4 4 5 5 4 4 3 3 3 3 3 2 1
6 5 4 3 1 4 4 5 6 7 7 7 5 4 5 3 5 8 8 9 9 9 8 8 7 7 7 6 6 6 5 5 5 4 4 4 4 4 4 3 3 2 2 1
3 2 2 2 1 3 5 6 7 8 7 7 8 6 6 6 7 8 9 9 8 8 8 7 7 7 7 7 6 6 5 4 3 4 4 4 4 4 4 3 3 3 2 1
Wind_Direction
258 272 274 285 286 288 277 263 263 285 278 285 286 287 297 295 295 290 287 295 262 244 229 218 211 198 193 195 189 178 174 174 165 151 144 147 151 159 161 164 162 158 152 152
277 277 259 268 270 276 272 269 267 263 269 272 285 287 287 294 292 284 291 290 279 257 240 214 211 205 192 183 188 180 177 169 162 152 147 146 144 147 161 157 154 149 147 157
265 274 282 262 255 256 259 262 262 267 275 288 289 288 292 295 288 291 288 287 289 281 246 222 210 202 201 191 171 178 171 164 157 149 144 139 143 148 148 151 139 162 153 156
271 288 260 253 259 266 265 270 272 264 269 276 275 290 292 284 294 286 284 288 298 291 275 234 213 208 197 184 180 170 165 160 155 150 143 145 139 139 146 153 164 159 156 159
244 256 275 279 274 253 245 280 259 271 280 280 294 302 284 292 262 308 319 310 306 310 300 270 208 194 182 176 170 170 165 160 157 150 144 143 144 156 157 156 154 154 155 159
223 254 258 266 265 281 280 274 267 272 271 278 324 298 291 320 316 319 325 317 317 328 328 272 198 175 164 170 166 170 163 156 146 143 137 141 153 150 150 153 147 151 151 154
237 251 255 259 269 269 247 277 285 295 324 310 293 276 293 308 308 319 314 325 330 41 29 70 154 163 163 162 160 139 131 133 135 139 146 148 137 141 143 144 148 147 146 151
233 239 259 243 262 225 264 266 280 291 307 303 288 285 288 300 315 316 321 337 1 77 75 80 145 144 145 140 126 127 131 135 139 142 138 132 133 136 142 148 150 148 150 155
231 239 259 275 275 286 282 278 286 293 287 282 290 294 292 297 294 302 293 31 49 92 103 116 146 140 133 128 130 133 133 132 130 128 125 131 136 141 148 155 149 155 160 161
267 262 263 273 286 274 271 268 278 272 263 280 297 298 290 291 279 234 173 146 146 127 131 134 137 129 130 135 133 129 126 127 125 124 129 140 142 149 139 153 156 158 166 167
260 264 267 261 262 266 273 278 269 268 269 267 287 289 292 282 257 198 162 153 155 150 150 139 134 125 129 133 131 124 124 124 122 125 134 137 133 146 150 152 162 166 177 176
253 256 253 272 275 274 277 278 274 275 277 286 269 270 291 289 201 169 158 154 150 147 141 139 139 129 126 139 136 132 126 131 131 135 139 132 131 110 102 127 154 165 163 170
252 262 266 265 273 275 268 273 272 276 272 285 279 268 236 198 181 159 155 159 156 148 134 134 128 125 118 122 129 129 130 137 137 139 143 140 138 139 139 129 146 157 170 178
257 264 268 260 255 261 260 260 270 274 282 281 275 238 197 175 154 133 156 147 142 142 134 136 132 118 113 122 125 125 128 132 142 142 143 144 148 149 149 158 167 162 125 198
267 255 253 264 267 263 263 271 271 274 279 281 239 203 183 172 163 140 134 132 129 130 126 128 125 121 120 127 126 127 130 137 138 137 143 141 143 146 154 161 166 160 156 154
291 280 269 259 261 261 257 255 260 266 261 222 191 174 175 139 125 126 135 140 144 144 132 126 120 122 125 121 121 117 124 134 137 136 135 136 143 150 153 162 165 172 184 193
295 292 283 261 247 243 228 251 261 265 231 183 178 150 146 134 121 124 121 105 107 115 125 131 131 125 126 126 128 132 136 141 130 134 145 151 155 162 164 165 173 183 197 183
289 281 279 274 260 265 244 227 256 216 191 165 145 135 138 142 140 133 123 117 109 99 106 128 134 133 120 125 133 136 139 143 149 149 150 157 163 161 166 178 183 190 191 185
293 287 280 274 267 258 248 231 196 177 139 136 136 145 143 131 133 136 143 134 131 138 152 139 135 126 131 138 135 137 142 150 153 151 155 147 159 168 176 187 189 197 202 201
305 298 284 270 250 222 185 163 139 133 133 136 129 132 129 130 137 137 136 131 135 123 146 143 142 140 140 138 138 145 153 155 154 151 159 169 175 181 187 192 193 200 207 215
325 326 328 18 86 94 121 136 133 133 136 139 146 145 140 134 130 134 135 145 147 145 147 151 150 144 143 143 155 147 148 151 157 161 168 177 172 180 185 193 204 213 212 217
334 337 347 24 66 105 109 116 117 126 128 112 104 117 126 132 130 114 50 150 148 152 152 154 152 150 147 152 148 149 154 161 165 166 168 172 183 188 194 197 215 215 212 207
336 339 349 33 65 85 87 95 117 134 138 145 145 148 153 153 159 155 158 153 146 159 156 156 147 144 143 149 152 156 156 154 161 174 176 178 182 190 199 207 205 203 196 194
343 352 358 0 95 100 100 68 93 84 92 103 109 139 143 145 147 121 109 144 144 154 155 148 150 142 150 152 154 155 160 164 166 169 170 163 177 182 182 180 183 162 148 148
344 342 348 51 97 98 126 130 111 111 116 119 137 147 149 154 150 158 147 150 148 150 147 141 138 142 152 154 157 158 157 156 160 164 173 180 175 171 169 154 141 133 127 142
345 346 337 317 256 157 157 171 152 154 148 140 140 154 152 136 128 136 141 144 150 143 144 149 153 154 151 153 155 158 158 155 158 169 166 159 151 144 137 130 126 124 118 115
325 319 313 318 297 198 181 179 169 170 167 159 145 163 153 148 140 141 141 149 149 149 147 148 150 153 149 151 155 154 150 142 145 146 142 135 135 132 130 123 119 118 122 136